Location: Newark
(41.0400°S, 62.7845°W)
Time: 02:41:49
(UTC+00:00)

Courier 1B Rocket - All Passes

Search period start: 30 November 2021 00:00
Search period end: 10 December 2021 00:00
Orbit: 920 x 1202 km, 28.2° (Epoch: 29 November)

Date Brightness Start Highest point End Pass type
(mag) Time Alt. Az. Time Alt. Az. Time Alt. Az.
30 Nov - 14:36:20 10° N 14:40:06 14° NNE 14:43:54 10° NE daylight
30 Nov - 16:26:28 10° NW 16:32:46 27° NNE 16:39:03 10° ENE daylight
30 Nov - 18:19:00 10° WNW 18:25:42 31° N 18:32:12 10° NE daylight
30 Nov - 20:12:50 10° WNW 20:18:30 22° NNW 20:23:58 10° NNE daylight
01 Dec - 15:25:57 10° NNW 15:31:47 23° NNE 15:37:39 10° ENE daylight
01 Dec - 17:17:56 10° WNW 17:24:39 31° N 17:31:17 10° ENE daylight
01 Dec - 19:11:17 10° WNW 19:17:33 27° NNW 19:23:38 10° NE daylight
01 Dec - 21:06:45 10° NW 21:10:07 13° NNW 21:13:25 10° N daylight
02 Dec - 14:25:49 10° NNW 14:30:50 19° NNE 14:35:55 10° ENE daylight
02 Dec - 16:17:02 10° NW 16:23:36 30° N 16:30:11 10° ENE daylight
02 Dec - 18:09:57 10° WNW 18:16:33 30° N 18:23:01 10° NE daylight
02 Dec - 20:04:19 10° WNW 20:09:17 18° NNW 20:14:06 10° NNE daylight
03 Dec - 13:26:20 10° N 13:29:57 14° NNE 13:33:37 10° NE daylight
03 Dec - 15:16:20 10° NW 15:22:34 27° NNE 15:28:54 10° ENE daylight
03 Dec - 17:08:48 10° WNW 17:15:30 31° N 17:22:11 10° NE daylight
03 Dec - 19:02:31 10° WNW 19:08:21 23° NNW 19:14:04 10° NNE daylight
04 Dec - 14:15:55 10° NNW 14:21:35 23° NNE 14:27:25 10° ENE daylight
04 Dec - 16:07:48 10° WNW 16:14:26 31° N 16:21:10 10° ENE daylight
04 Dec - 18:01:03 10° WNW 18:07:22 27° NNW 18:13:38 10° NE daylight
04 Dec - 19:56:22 10° NW 20:00:00 14° NNW 20:03:35 10° N daylight
05 Dec - 13:15:54 10° NNW 13:20:41 18° NNE 13:25:37 10° ENE daylight
05 Dec - 15:07:00 10° NW 15:13:23 30° N 15:19:59 10° ENE daylight
05 Dec - 16:59:48 10° WNW 17:06:21 30° N 17:12:55 10° NE daylight
05 Dec - 18:54:04 10° WNW 18:59:07 19° NNW 19:04:08 10° NNE daylight
06 Dec - 12:16:34 10° N 12:19:52 13° NNE 12:23:13 10° NE daylight
06 Dec - 14:06:24 10° NW 14:12:24 27° NNE 14:18:38 10° ENE daylight
06 Dec - 15:58:43 10° WNW 16:05:18 31° N 16:12:00 10° NE daylight
06 Dec - 17:52:21 10° WNW 17:58:10 23° NNW 18:03:59 10° NNE daylight
07 Dec - 13:06:04 10° NNW 13:11:28 22° NNE 13:17:05 10° ENE daylight
07 Dec - 14:57:50 10° NW 15:04:15 31° N 15:10:54 10° ENE daylight
07 Dec - 16:50:58 10° WNW 16:57:10 27° NNW 17:03:28 10° NE daylight
07 Dec - 18:46:10 10° NW 18:49:51 14° NNW 18:53:31 10° N daylight
08 Dec - 12:06:09 10° NNW 12:10:37 18° NNE 12:15:15 10° ENE daylight
08 Dec - 13:57:07 10° NW 14:03:15 29° N 14:09:39 10° ENE daylight
08 Dec - 15:49:48 10° WNW 15:56:09 29° N 16:02:40 10° NE daylight
08 Dec - 17:43:57 10° WNW 17:48:56 18° NNW 17:53:57 10° NNE daylight
09 Dec - 11:07:01 10° N 11:09:51 13° NNE 11:12:45 10° NE daylight
09 Dec - 12:56:36 10° NW 13:02:18 26° NNE 13:08:17 10° ENE daylight
09 Dec - 14:48:49 10° WNW 14:55:08 30° N 15:01:42 10° NE daylight
09 Dec - 16:42:20 10° WNW 16:47:59 22° NNW 16:53:44 10° NNE daylight
